Flag for Germany Weather past 2 weeks in Ravensburg, Baden-Württemberg, Germany

Now
46 °F

Light rain. Overcast.


Feels Like: 46 °F
Forecast: 35 / 52 °F
Wind: 2 mph from North

Location: Friedrichshafen Airport


UV Index: 0 (Low)

Visibility: N/A


Pressure: 29.86 "Hg

Humidity: 82%

Dew point: 41 °F

Location of RavensburgLocation

Historic Weather in Ravensburg

°F

Ravensburg temperature yesterday

Maximum temperature yesterday: 61 °F (at 4:20 PM)
Minimum temperature yesterday: 34 °F (at 6:20 AM)
Average temperature yesterday: 47 °F

Past Weeks' High & Low Weather Summary

 TemperatureHumidityPressure
High68 °F (Apr 3, 2:20 PM)94% (Apr 6, 2:20 AM)30.33 "Hg (Apr 6, 2:20 AM)
Low32 °F (Apr 16, 5:50 AM)13% (Apr 17, 5:20 PM)29.65 "Hg (Apr 3, 3:20 PM)
Average50 °F61%30.07 "Hg
* Reported Apr 3 2:20 PM — Apr 18 2:50 PM, Ravensburg, Weather by CustomWeather, © 2014

Note: Actual official high and low records may vary slightly from our data, if they occured in-between our weather recording intervals... More about our weather records

Advertising

Historic Weather Conditions — Data for Previous 24 hours

 ConditionsComfort  
Time TempWeatherWind HumidityBarometerVisibility
2:50 PM
Apr 18
46 °FLight rain. Mostly cloudy.2 mph82%29.86 "Hg5 mi
2:20 PM48 °FLight rain. Mostly cloudy.8 mph66%29.86 "HgN/A
1:50 PM46 °FLight rain. Overcast.9 mph76%29.86 "HgN/A
1:20 PM46 °FLight rain. More clouds than sun.12 mph76%29.86 "HgN/A
12:50 PM48 °FLight rain. Overcast.12 mph66%29.86 "HgN/A
12:20 PM48 °FLight rain. Cloudy.13 mph66%29.89 "HgN/A
11:50 AM50 °FMostly cloudy.10 mph58%29.86 "HgN/A
11:20 AM50 °FMostly cloudy.5 mph50%29.89 "HgN/A
10:50 AM50 °FPassing clouds.5 mph50%29.89 "HgN/A
9:50 AM48 °FOvercast.3 mph54%29.89 "HgN/A
9:20 AM46 °FSunny.1 mph57%29.89 "Hg10 mi
8:50 AM43 °FSunny.2 mph71%29.86 "Hg10 mi
8:20 AM41 °FSunny.No wind76%29.89 "Hg10 mi
7:50 AM37 °FSunny.2 mph81%29.89 "Hg10 mi
7:20 AM37 °FClear.No wind81%29.89 "Hg10 mi
6:50 AM36 °FClear.No wind81%29.89 "Hg10 mi
6:20 AM36 °FClear.No wind75%29.89 "Hg10 mi
5:50 AM34 °FClear.2 mph81%29.92 "Hg10 mi
5:20 AM34 °FClear.1 mph81%29.92 "Hg10 mi
4:50 AM34 °FClear.1 mph81%29.92 "Hg10 mi
4:20 AM34 °FClear.1 mph75%29.95 "Hg10 mi
3:50 AM32 °FClear.1 mph80%29.95 "Hg10 mi
3:20 AM32 °FClear.1 mph80%29.95 "Hg10 mi
2:50 AM32 °FChilly.3 mph80%29.95 "HgN/A
2:20 AM34 °FChilly.No wind75%29.95 "HgN/A
1:50 AM34 °FChilly.1 mph75%29.98 "HgN/A
1:20 AM36 °FChilly.2 mph70%29.98 "HgN/A
12:50 AM37 °FChilly.3 mph65%29.98 "HgN/A
12:20 AM37 °FChilly.3 mph65%29.98 "HgN/A
11:50 PM
Apr 17
39 °FChilly.No wind61%30.01 "HgN/A
11:20 PM41 °FQuite cool.2 mph57%30.01 "HgN/A
10:50 PM43 °FQuite cool.3 mph53%30.01 "HgN/A
10:20 PM45 °FClear.2 mph42%30.01 "Hg10 mi
9:20 PM48 °FClear.1 mph37%30.01 "Hg10 mi
8:50 PM52 °FSunny.2 mph30%30.01 "Hg10 mi
8:20 PM54 °FSunny.2 mph28%30.01 "Hg10 mi
7:50 PM55 °FSunny.1 mph28%30.01 "Hg10 mi
6:50 PM59 °FPassing clouds.5 mph27%30.01 "HgN/A
6:20 PM59 °FPassing clouds.6 mph27%30.04 "HgN/A
5:50 PM61 °FSunny.2 mph17%30.04 "Hg10 mi
5:20 PM61 °FPassing clouds.5 mph13%30.04 "HgN/A
4:50 PM61 °FSunny.3 mph17%30.04 "Hg10 mi
4:20 PM61 °FPassing clouds.5 mph19%30.07 "HgN/A
Weather by CustomWeather, © 2014

See weather overview